Weather History for KTRI - March, 2013

Change the Weather History Date:

Saturday, March 16, 2013

  Actual Average Record
Temperature  
Mean Temperature 56 °F 47 °F  
Max Temperature 72 °F 59 °F 84 °F (1942)
Min Temperature 40 °F 34 °F 14 °F (1949)
Degree Days  
Heating Degree Days 9 18  
Month to date heating degree days 402 325  
Since 1 July heating degree days 3571 3707  
Cooling Degree Days 0 0  
Month to date cooling degree days 0 0  
Year to date cooling degree days 0 0  
Growing Degree Days 6 (Base 50)    
Moisture  
Dew Point 44 °F    
Average Humidity 67    
Maximum Humidity 96    
Minimum Humidity 38    
Precipitation  
Precipitation 0.03 in 0.11 in 2.78 in (1973)
Month to date precipitation 2.11 1.75  
Year to date precipitation 13.96 8.57  
Snow  
Snow 0.00 in 0.10 in - ()
Month to date snowfall 0.6 0.9  
Since 1 July snowfall 8.3 11.7  
Snow Depth 0.00 in    
Sea Level Pressure  
Sea Level Pressure 29.80 in    
Wind  
Wind Speed 11 mph (WSW)    
Max Wind Speed 28 mph    
Max Gust Speed 35 mph    
Visibility 10 miles    
Events Rain    
T = Trace of Precipitation, MM = Missing Value Source: NWS Daily Summary

Daily Weather History Graph

Daily Weather History Graph

Search for Another Location

Airport or City:

Trip Planner

Search our weather history database for the weather conditions in past years. The results will help you decide how hot, cold, wet, or windy it might be!

Date:

Astronomy

Mar. 16, 2013 Rise Set
Actual Time 7:38 AM EDT 7:38 PM EDT
Civil Twilight 7:12 AM EDT 8:03 PM EDT
Nautical Twilight 6:43 AM EDT 8:33 PM EDT
Astronomical Twilight 6:12 AM EDT 9:04 PM EDT
Moon 10:15 AM EDT (3/16) No Moon Set
Length of Visible Light 12h 50m
Length of Day
11h 59m
Waxing Crescent, 23% of the Moon is Illuminated
Mar 16
Waxing Crescent
Mar 19
First Quarter
Mar 27
Full
Apr 3
Last Quarter
Apr 10
New

Hourly Weather History & Observations

Time (EDT) Temp. Windchill Dew Point Humidity Pressure Visibility Wind Dir Wind Speed Gust Speed Precip Events Conditions
12:53 AM 43.0 °F 41.3 °F 39.0 °F 86% 29.86 in 10.0 mi North 3.5 mph - 0.00 in   Mostly Cloudy
1:53 AM 43.0 °F - 37.9 °F 82% 29.85 in 10.0 mi Calm Calm - N/A   Scattered Clouds
2:53 AM 42.1 °F - 39.0 °F 89% 29.83 in 10.0 mi Calm Calm - N/A   Mostly Cloudy
3:53 AM 39.9 °F - 37.9 °F 93% 29.81 in 10.0 mi Calm Calm - N/A   Scattered Clouds
4:53 AM 41.0 °F - 39.0 °F 93% 29.82 in 10.0 mi Calm Calm - N/A   Mostly Cloudy
5:53 AM 43.0 °F 40.3 °F 39.9 °F 89% 29.81 in 8.0 mi SW 4.6 mph - 0.00 in Rain Light Rain
6:53 AM 57.0 °F - 44.1 °F 62% 29.80 in 10.0 mi SW 15.0 mph - 0.02 in   Overcast
7:53 AM 55.0 °F - 42.1 °F 62% 29.81 in 10.0 mi SW 11.5 mph - N/A   Mostly Cloudy
8:53 AM 57.0 °F - 43.0 °F 59% 29.82 in 10.0 mi WSW 13.8 mph - N/A   Scattered Clouds
9:53 AM 61.0 °F - 42.1 °F 50% 29.81 in 10.0 mi SW 16.1 mph 24.2 mph N/A   Partly Cloudy
10:53 AM 64.0 °F - 42.1 °F 45% 29.80 in 10.0 mi WSW 21.9 mph 31.1 mph N/A   Partly Cloudy
11:53 AM 66.9 °F - 44.1 °F 44% 29.78 in 10.0 mi WSW 20.7 mph 32.2 mph N/A   Scattered Clouds
12:53 PM 69.1 °F - 44.1 °F 40% 29.77 in 10.0 mi SW 23.0 mph 35.7 mph N/A   Scattered Clouds
1:53 PM 71.1 °F - 45.0 °F 39% 29.76 in 10.0 mi SW 24.2 mph 28.8 mph N/A   Mostly Cloudy
2:53 PM 71.1 °F - 45.0 °F 39% 29.73 in 10.0 mi SW 19.6 mph 28.8 mph N/A   Mostly Cloudy
3:53 PM 70.0 °F - 45.0 °F 41% 29.73 in 10.0 mi WSW 16.1 mph 28.8 mph N/A   Mostly Cloudy
4:53 PM 72.0 °F - 46.0 °F 40% 29.72 in 10.0 mi SW 20.7 mph 31.1 mph N/A   Mostly Cloudy
5:53 PM 70.0 °F - 46.0 °F 42% 29.72 in 10.0 mi SW 17.3 mph 25.3 mph N/A   Mostly Cloudy
6:53 PM 66.9 °F - 48.9 °F 52% 29.74 in 10.0 mi WSW 16.1 mph 23.0 mph 0.01 in   Overcast
7:53 PM 62.1 °F - 50.0 °F 65% 29.79 in 10.0 mi NNW 6.9 mph - N/A   Mostly Cloudy
8:53 PM 64.0 °F - 48.9 °F 58% 29.81 in 10.0 mi Calm Calm - N/A   Mostly Cloudy
9:53 PM 55.9 °F - 48.9 °F 77% 29.83 in 10.0 mi Calm Calm - N/A   Scattered Clouds
10:53 PM 60.1 °F - 48.0 °F 64% 29.83 in 10.0 mi West 6.9 mph - N/A   Partly Cloudy
11:53 PM 52.0 °F - 50.0 °F 93% 29.85 in 10.0 mi Calm Calm - N/A   Clear